Location: Lake Lucerne
(45.5315°N, 88.8489°W)
Time: 04:21:26

ISS - Pass Details

Date: 26 February 2018
Orbit: 403 x 406 km, 51.6° (Epoch: 23 March)

Event Time Altitude Azimuth Distance (km) Brightness Sun altitude
Rises 05:26:39 0° 195° (SSW) 2,314 -0.2 -13.4°
Reaches altitude 10° 05:29:21 10° 171° (S) 1,458 -0.9 -13.0°
Maximum altitude 05:31:19 15° 134° (SE) 1,191 -0.8 -12.6°
Drops below altitude 10° 05:33:18 10° 97° (E) 1,463 0.5 -12.3°
Sets 05:36:06 0° 73° (ENE) 2,369 1.7 -11.8°
